period_start,C,m1,H,J0,J1,J2,J3,J4,J5,JA,JB,JC,JD,JJ,JK,JN,#
2016-11-30 00:00:40,0.10,7.78,0.00,18.34,22.94,26.75,15.01,52.22,1026.40,2040.00,1510.58,1704.59,1928.66,600.06,611.43,50.48,0000 0000 0000 0000 000000
2016-11-30 00:05:42,0.04,7.79,0.00,18.37,22.94,26.74,15.00,52.26,1026.39,2040.00,1510.01,1704.02,1928.03,599.93,611.23,50.53,0000 0000 0000 0000 000000
2016-11-30 00:10:43,0.07,7.79,0.00,18.36,22.94,26.72,15.06,52.27,1026.38,2040.00,1509.32,1703.93,1927.81,599.98,611.29,50.58,0000 0000 0000 0000 000000
2016-11-30 00:15:45,0.09,7.80,0.00,18.37,22.94,26.75,14.97,52.26,1026.38,2040.00,1508.86,1703.17,1927.08,600.07,611.20,50.63,0000 0000 0000 0000 000000
2016-11-30 00:20:46,0.06,7.80,0.00,18.39,22.94,26.74,15.03,52.38,1026.38,2040.00,1508.05,1702.99,1926.88,600.22,611.32,50.68,0000 0000 0000 0000 000000
2016-11-30 00:25:47,0.12,7.80,0.00,18.39,22.94,26.76,15.00,52.32,1026.38,2040.00,1507.50,1702.45,1926.11,599.69,611.04,50.73,0000 0000 0000 0000 000000
2016-11-30 00:30:48,0.03,7.81,0.00,18.38,22.94,26.72,14.98,52.27,1026.38,2040.00,1506.99,1702.01,1925.98,600.03,611.38,50.78,0000 0000 0000 0000 000000
2016-11-30 00:35:49,0.10,7.81,0.00,18.36,22.95,26.75,15.01,52.39,1026.38,2040.00,1506.20,1701.83,1925.34,599.98,611.23,50.83,0000 0000 0000 0000 000000
2016-11-30 00:40:51,0.12,7.82,0.00,18.35,22.95,26.74,15.04,52.43,1026.38,2040.00,1505.47,1701.05,1924.78,599.99,611.31,50.88,0000 0000 0000 0000 000000
2016-11-30 00:45:52,0.13,7.83,0.00,18.36,22.95,26.75,15.04,52.40,1026.38,2040.00,1504.29,1700.52,1924.05,599.96,611.43,50.93,0000 0000 0000 0000 000000
2016-11-30 00:50:53,0.05,7.83,0.00,18.37,22.96,26.76,15.02,52.38,1026.38,2040.00,1503.87,1700.01,1923.71,600.09,611.29,50.98,0000 0000 0000 0000 000000
2016-11-30 00:55:54,0.08,7.83,0.00,18.38,22.96,26.76,14.96,52.30,1026.38,2040.00,1503.07,1699.79,1923.04,600.00,611.37,51.04,0000 0000 0000 0000 000000
2016-11-30 01:00:55,0.10,7.84,0.00,18.38,22.97,26.75,15.01,52.49,1026.38,2040.00,1502.34,1699.08,1922.85,599.99,611.39,51.09,0000 0000 0000 0000 000000
2016-11-30 01:05:57,0.04,7.84,0.00,18.37,22.97,26.75,15.08,52.47,1026.38,2040.00,1501.96,1698.98,1922.10,600.24,611.49,51.14,0000 0000 0000 0000 000000
2016-11-30 01:10:58,0.11,7.85,0.00,18.43,22.97,26.77,15.01,52.35,1026.27,2040.00,1501.16,1698.37,1921.91,599.95,611.08,51.19,0000 0000 0000 0000 000000
2016-11-30 01:15:59,0.08,7.85,0.00,18.43,22.97,26.76,15.03,52.30,1026.18,2040.00,1500.61,1698.01,1921.12,600.37,611.44,51.24,0000 0000 0000 0000 000000
2016-11-30 01:21:01,0.05,7.85,0.00,18.43,22.97,26.76,14.97,52.38,1026.00,2040.00,1500.01,1697.71,1920.97,600.00,611.01,51.29,0000 0000 0000 0000 000000
2016-11-30 01:26:02,0.12,7.86,0.00,18.42,22.99,26.78,15.06,52.46,1025.94,2040.00,1499.35,1697.03,1920.22,600.28,611.24,51.34,0000 0000 0000 0000 000000
2016-11-30 01:31:03,0.01,7.86,0.00,18.40,22.99,26.79,14.99,52.51,1025.95,2040.00,1498.99,1696.94,1920.00,599.90,610.95,51.39,0000 0000 0000 0000 000000
2016-11-30 01:36:05,0.11,7.87,0.00,18.41,22.99,26.80,15.06,52.36,1025.92,2040.00,1498.34,1696.34,1919.75,600.16,611.12,51.44,0000 0000 0000 0000 000000
2016-11-30 01:41:06,0.04,7.87,0.00,18.42,23.00,26.82,15.06,52.33,1025.91,2040.00,1497.95,1696.00,1919.04,600.10,610.89,51.49,0000 0000 0000 0000 000000
2016-11-30 01:46:06,0.05,7.87,0.00,18.44,23.01,26.80,14.99,52.36,1025.90,2040.00,1497.22,1695.92,1918.94,599.51,610.53,51.54,0000 0000 0000 0000 000000
2016-11-30 01:51:07,0.09,7.88,0.00,18.44,23.02,26.81,15.04,52.43,1025.90,2039.99,1496.98,1695.24,1918.29,599.79,610.67,51.59,0000 0000 0000 0000 000000
2016-11-30 01:56:09,0.06,7.88,0.00,18.45,23.02,26.79,15.10,52.48,1025.91,2039.98,1496.35,1695.00,1918.00,600.28,611.16,51.64,0000 0000 0000 0000 000000
2016-11-30 02:01:10,0.01,7.88,0.00,18.45,23.02,26.80,15.08,52.45,1025.90,2039.99,1496.00,1694.94,1917.91,600.38,611.24,51.69,0000 0000 0000 0000 000000
2016-11-30 02:06:11,0.10,7.88,0.00,18.46,23.03,26.82,15.05,52.43,1025.90,2039.99,1495.78,1694.32,1917.24,600.51,611.37,51.74,0000 0000 0000 0000 000000
2016-11-30 02:11:13,0.04,7.89,0.00,18.47,23.04,26.81,15.03,52.52,1025.90,2039.98,1495.05,1694.01,1917.00,600.12,610.94,51.79,0000 0000 0000 0000 000000
2016-11-30 02:16:14,0.02,7.89,0.00,18.45,23.04,26.85,15.00,52.38,1025.90,2039.98,1494.89,1693.97,1916.83,600.02,610.91,51.84,0000 0000 0000 0000 000000
2016-11-30 02:21:15,0.11,7.90,0.00,18.46,23.04,26.87,15.04,52.47,1025.90,2039.98,1494.13,1693.44,1916.11,599.91,610.77,51.90,0000 0000 0000 0000 000000
2016-11-30 02:26:16,0.02,7.90,0.00,18.49,23.05,26.83,15.01,52.28,1025.90,2039.98,1493.99,1693.01,1915.99,599.93,610.58,51.95,0000 0000 0000 0000 000000
2016-11-30 02:31:17,0.05,7.90,0.00,18.48,23.05,26.85,15.00,52.39,1025.90,2039.98,1493.40,1692.99,1915.88,600.21,610.96,52.00,0000 0000 0000 0000 000000
2016-11-30 02:36:18,0.05,7.90,0.00,18.48,23.07,26.89,15.01,52.27,1025.90,2039.98,1493.01,1692.80,1915.12,599.94,610.72,52.05,0000 0000 0000 0000 000000
2016-11-30 02:41:20,0.08,7.91,0.00,18.50,23.07,26.85,15.00,52.39,1025.90,2039.97,1492.64,1692.10,1915.00,599.62,610.34,52.10,0000 0000 0000 0000 000000
2016-11-30 02:46:21,0.04,7.91,0.00,18.50,23.07,26.84,14.98,52.30,1025.90,2039.97,1492.03,1691.99,1914.71,599.97,610.70,52.15,0000 0000 0000 0000 000000
2016-11-30 02:51:22,0.08,7.91,0.00,18.51,23.07,26.86,15.06,52.43,1025.89,2039.97,1491.67,1691.74,1914.04,600.46,611.19,52.20,0000 0000 0000 0000 000000
2016-11-30 02:56:23,0.07,7.92,0.00,18.50,23.07,26.86,15.07,52.38,1025.87,2039.96,1491.02,1691.04,1913.89,600.09,610.82,52.25,0000 0000 0000 0000 000000
2016-11-30 03:01:25,0.08,7.92,0.00,18.53,23.07,26.83,14.95,52.45,1025.87,2039.97,1490.43,1690.97,1913.12,599.75,610.34,52.30,0000 0000 0000 0000 000000
2016-11-30 03:06:26,0.07,7.92,0.00,18.52,23.07,26.85,15.02,52.37,1025.87,2039.97,1489.93,1690.25,1912.97,600.20,610.80,52.35,0000 0000 0000 0000 000000
2016-11-30 03:11:27,0.09,7.93,0.00,18.51,23.07,26.85,15.07,52.34,1025.88,2039.96,1489.11,1690.00,1912.26,599.97,610.73,52.40,0000 0000 0000 0000 000000
2016-11-30 03:16:29,0.07,7.93,0.00,18.52,23.07,26.86,14.98,52.21,1025.89,2039.96,1488.70,1689.66,1912.00,599.65,610.39,52.45,0000 0000 0000 0000 000000
2016-11-30 03:21:30,0.08,7.94,0.00,18.54,23.07,26.85,15.07,52.23,1025.89,2039.97,1488.02,1689.03,1911.44,600.46,611.12,52.50,0000 0000 0000 0000 000000
2016-11-30 03:26:32,0.06,7.94,0.00,18.55,23.07,26.83,15.06,52.12,1025.89,2039.95,1487.44,1688.89,1910.99,600.11,610.78,52.55,0000 0000 0000 0000 000000
2016-11-30 03:31:33,0.09,7.95,0.00,18.55,23.07,26.85,15.03,52.27,1025.88,2039.97,1486.99,1688.16,1910.36,600.28,611.00,52.60,0000 0000 0000 0000 000000
2016-11-30 03:36:34,0.05,7.95,0.00,18.53,23.07,26.87,14.98,52.26,1025.88,2039.95,1486.44,1688.00,1910.01,599.78,610.51,52.65,0000 0000 0000 0000 000000
2016-11-30 03:41:36,0.01,7.95,0.00,18.53,23.07,26.86,14.96,52.27,1025.82,2039.95,1486.01,1687.97,1909.98,599.96,610.68,52.70,0000 0000 0000 0000 000000
2016-11-30 03:46:37,0.09,7.95,0.00,18.56,23.07,26.90,14.98,52.23,1025.79,2039.97,1485.82,1687.49,1909.43,600.04,610.66,52.75,0000 0000 0000 0000 000000
2016-11-30 03:51:38,0.07,7.96,0.00,18.55,23.07,26.90,15.06,52.25,1025.81,2039.96,1485.08,1687.02,1909.02,600.30,610.86,52.80,0000 0000 0000 0000 000000
2016-11-30 03:56:40,0.00,7.96,0.00,18.55,23.08,26.90,15.04,52.26,1025.83,2039.92,1484.96,1686.99,1908.94,600.08,610.69,52.86,0000 0000 0000 0000 000000
2016-11-30 04:01:41,0.13,7.96,0.00,18.56,23.09,26.91,14.98,52.17,1025.78,2039.96,1484.17,1686.55,1908.22,600.31,611.09,52.91,0000 0000 0000 0000 000000
2016-11-30 04:06:42,0.02,7.97,0.00,18.57,23.09,26.91,15.05,52.26,1025.79,2039.97,1484.00,1686.05,1908.00,600.28,610.94,52.96,0000 0000 0000 0000 000000
2016-11-30 04:11:43,0.05,7.97,0.00,18.56,23.09,26.93,14.94,52.28,1025.74,2039.92,1483.44,1685.99,1907.82,599.99,610.57,53.01,0000 0000 0000 0000 000000
2016-11-30 04:16:44,0.06,7.97,0.00,18.57,23.10,26.93,15.09,52.27,1025.72,2039.88,1482.99,1685.70,1907.11,600.13,610.60,53.06,0000 0000 0000 0000 000000
2016-11-30 04:21:45,0.09,7.98,0.00,18.58,23.10,26.94,15.04,52.29,1025.68,2039.91,1482.44,1685.06,1906.98,600.25,610.76,53.11,0000 0000 0000 0000 000000
2016-11-30 04:26:47,0.09,7.98,0.00,18.58,23.11,26.93,15.10,52.31,1025.77,2039.71,1481.69,1684.66,1906.17,600.02,610.48,53.16,0000 0000 0000 0000 000000
2016-11-30 04:31:49,0.09,7.99,0.00,18.57,23.12,26.94,15.04,52.34,1025.68,2039.55,1480.69,1683.86,1905.28,600.28,610.69,53.21,0000 0000 0000 0000 000000
2016-11-30 04:36:50,0.10,7.99,0.00,18.58,23.12,26.92,15.03,52.36,1025.64,2039.23,1479.85,1683.06,1904.49,600.10,610.57,53.26,0000 0000 0000 0000 000000
2016-11-30 04:41:51,0.14,8.00,0.00,18.59,23.12,26.94,15.04,52.31,1025.59,2039.29,1478.83,1682.54,1903.88,599.92,610.23,53.31,0000 0000 0000 0000 000000
2016-11-30 04:46:53,0.16,8.00,0.00,18.61,23.12,26.93,15.04,52.17,1025.52,2039.23,1477.63,1681.75,1903.03,600.13,610.48,53.36,0000 0000 0000 0000 000000
2016-11-30 04:51:54,0.15,8.01,0.00,18.57,23.11,26.93,14.91,52.23,1025.47,2039.38,1476.57,1680.95,1902.11,599.86,610.32,53.41,0000 0000 0000 0000 000000
2016-11-30 04:56:55,0.20,8.02,0.00,18.56,23.10,26.91,14.99,52.15,1025.50,2039.46,1475.22,1679.93,1901.01,599.93,610.37,53.46,0000 0000 0000 0000 000000
2016-11-30 05:01:57,0.30,8.03,0.00,18.57,23.10,26.89,14.98,52.14,1025.48,2039.45,1473.22,1678.56,1899.49,599.93,610.37,53.51,0000 0000 0000 0000 000000
2016-11-30 05:06:58,0.26,8.05,0.00,18.57,23.09,26.91,14.99,52.16,1025.43,2039.35,1471.24,1676.94,1897.74,599.86,610.17,53.56,0000 0000 0000 0000 000000
2016-11-30 05:11:59,0.28,8.06,0.00,18.56,23.09,26.93,14.99,52.20,1025.42,2039.42,1469.36,1675.55,1896.22,599.86,610.21,53.61,0000 0000 0000 0000 000000
2016-11-30 05:17:01,0.24,8.08,0.00,18.58,23.09,26.91,14.91,52.23,1025.47,2039.51,1467.50,1674.23,1894.71,599.55,609.87,53.66,0000 0000 0000 0000 000000
2016-11-30 05:22:02,0.27,8.09,0.00,18.57,23.09,26.91,15.06,52.23,1025.52,2039.39,1465.64,1672.86,1893.34,600.20,610.56,53.71,0000 0000 0000 0000 000000
2016-11-30 05:27:03,0.21,8.11,0.00,18.55,23.09,26.93,15.04,52.15,1025.56,2039.64,1464.08,1671.78,1892.14,599.91,610.37,53.77,0000 0000 0000 0000 000000
2016-11-30 05:32:05,0.23,8.12,0.00,18.55,23.09,26.95,14.99,52.36,1025.54,2039.62,1462.58,1670.66,1890.91,599.86,610.28,53.82,0000 0000 0000 0000 000000
2016-11-30 05:37:06,0.15,8.13,0.00,18.57,23.09,26.94,14.96,52.13,1025.44,2039.78,1461.54,1669.88,1889.95,599.74,610.11,53.87,0000 0000 0000 0000 000000
2016-11-30 05:42:07,0.17,8.13,0.00,18.57,23.09,26.91,14.97,52.29,1025.50,2039.64,1460.24,1668.93,1888.89,599.84,610.16,53.92,0000 0000 0000 0000 000000
2016-11-30 05:47:08,0.19,8.14,0.00,18.57,23.10,26.94,14.97,52.26,1025.69,2039.65,1458.83,1667.94,1887.83,599.68,610.19,53.97,0000 0000 0000 0000 000000
2016-11-30 05:52:10,0.16,8.15,0.00,18.55,23.10,26.94,14.98,52.35,1025.66,2039.55,1457.67,1667.05,1886.91,599.76,610.32,54.02,0000 0000 0000 0000 000000
2016-11-30 05:57:11,0.06,8.16,0.00,18.56,23.10,26.98,14.98,52.24,1025.53,2039.39,1457.01,1666.65,1886.07,599.88,610.27,54.07,0000 0000 0000 0000 000000
2016-11-30 06:02:12,0.09,8.16,0.00,18.57,23.10,26.97,14.93,52.19,1025.61,2039.42,1456.40,1666.03,1885.79,599.90,610.40,54.12,0000 0000 0000 0000 000000
2016-11-30 06:07:14,0.16,8.17,0.00,18.57,23.11,26.94,15.01,52.39,1025.69,2039.39,1455.39,1665.28,1884.92,599.89,610.38,54.17,0000 0000 0000 0000 000000
2016-11-30 06:12:15,0.15,8.17,0.00,18.57,23.11,26.93,15.00,52.31,1025.80,2039.40,1454.33,1664.61,1884.04,599.97,610.48,54.22,0000 0000 0000 0000 000000
2016-11-30 06:17:16,0.07,8.18,0.00,18.56,23.12,26.95,15.02,52.25,1025.64,2039.13,1453.37,1663.95,1883.16,600.29,610.78,54.27,0000 0000 0000 0000 000000
2016-11-30 06:22:17,0.17,8.19,0.00,18.56,23.12,26.94,14.97,52.18,1025.54,2039.16,1452.37,1663.11,1882.42,600.18,610.64,54.32,0000 0000 0000 0000 000000
2016-11-30 06:27:19,0.14,8.19,0.00,18.56,23.12,26.93,15.05,52.27,1025.46,2039.10,1451.37,1662.52,1881.62,600.26,610.62,54.37,0000 0000 0000 0000 000000
2016-11-30 06:32:20,0.10,8.20,0.00,18.54,23.12,26.91,15.02,52.23,1025.45,2039.08,1450.44,1661.96,1880.96,600.31,610.61,54.42,0000 0000 0000 0000 000000
2016-11-30 06:37:22,0.15,8.21,0.00,18.55,23.12,26.94,15.03,52.36,1025.45,2039.18,1449.72,1661.16,1880.14,600.09,610.50,54.47,0000 0000 0000 0000 000000
2016-11-30 06:42:23,0.05,8.21,0.00,18.54,23.12,26.91,15.04,52.22,1025.50,2039.27,1448.91,1660.91,1879.80,600.24,610.53,54.52,0000 0000 0000 0000 000000
2016-11-30 06:47:25,0.15,8.22,0.00,18.55,23.11,26.93,15.05,52.35,1025.53,2039.29,1448.05,1660.11,1879.04,600.05,610.43,54.58,0000 0000 0000 0000 000000
2016-11-30 06:52:26,0.12,8.23,0.00,18.52,23.10,26.90,15.03,52.42,1025.44,2039.40,1447.28,1659.82,1878.45,600.36,610.61,54.63,0000 0000 0000 0000 000000
2016-11-30 06:57:27,0.07,8.23,0.00,18.52,23.09,26.90,15.03,52.33,1025.45,2039.21,1446.59,1659.06,1877.91,600.35,610.81,54.68,0000 0000 0000 0000 000000
2016-11-30 07:02:29,0.10,8.23,0.00,18.51,23.09,26.90,14.98,52.25,1025.50,2039.18,1445.86,1658.67,1877.10,599.94,610.43,54.73,0000 0000 0000 0000 000000
2016-11-30 07:07:30,0.13,8.24,0.00,18.52,23.09,26.89,14.95,52.18,1025.57,2039.18,1444.83,1658.01,1876.67,599.86,610.34,54.78,0000 0000 0000 0000 000000
2016-11-30 07:12:31,0.14,8.25,0.00,18.51,23.09,26.90,15.02,52.29,1025.63,2039.26,1443.87,1657.23,1875.95,600.00,610.60,54.83,0000 0000 0000 0000 000000
2016-11-30 07:17:33,0.14,8.26,0.00,18.52,23.09,26.90,14.96,52.33,1025.63,2039.43,1443.04,1656.76,1875.10,599.76,610.23,54.88,0000 0000 0000 0000 000000
2016-11-30 07:22:34,0.16,8.27,0.00,18.53,23.09,26.89,14.97,52.28,1025.48,2039.65,1442.15,1655.98,1874.37,599.95,610.32,54.93,0000 0000 0000 0000 000000
2016-11-30 07:27:35,0.16,8.27,0.00,18.51,23.09,26.90,15.01,52.33,1025.55,2039.63,1441.02,1655.09,1873.38,599.70,610.28,54.98,0000 0000 0000 0000 000000
2016-11-30 07:32:36,0.14,8.28,0.00,18.49,23.09,26.90,14.98,52.30,1025.49,2039.51,1440.10,1654.33,1872.46,600.05,610.49,55.03,0000 0000 0000 0000 000000
2016-11-30 07:37:38,0.06,8.28,0.00,18.50,23.09,26.91,15.07,52.31,1025.47,2039.47,1439.70,1654.00,1872.01,600.12,610.71,55.08,0000 0000 0000 0000 000000
2016-11-30 07:42:39,-0.01,8.29,0.00,18.49,23.08,26.90,14.96,52.50,1025.43,2039.24,1439.03,1653.97,1871.98,599.72,610.21,55.13,0000 0000 0000 0000 000000
2016-11-30 07:47:40,0.04,8.29,0.00,18.50,23.08,26.86,15.04,52.35,1025.42,2039.33,1438.98,1653.73,1871.82,600.27,610.74,55.18,0000 0000 0000 0000 000000
2016-11-30 07:52:42,0.06,8.29,0.00,18.49,23.07,26.87,15.04,52.38,1025.41,2039.18,1438.77,1653.12,1871.15,600.05,610.58,55.23,0000 0000 0000 0000 000000
2016-11-30 07:57:43,0.04,8.29,0.00,18.48,23.07,26.86,15.04,52.24,1025.41,2039.21,1438.12,1653.01,1871.01,600.18,610.64,55.28,0000 0000 0000 0000 000000
2016-11-30 08:02:44,-0.00,8.29,0.00,18.48,23.07,26.87,14.92,52.26,1025.41,2039.15,1437.92,1652.98,1870.96,599.78,610.26,55.33,0000 0000 0000 0000 000000
2016-11-30 08:07:46,0.17,8.30,0.00,18.48,23.07,26.86,14.97,52.41,1025.41,2039.13,1436.93,1652.24,1870.17,599.78,610.28,55.38,0000 0000 0000 0000 000000
2016-11-30 08:12:47,0.13,8.31,0.00,18.48,23.07,26.87,14.97,52.34,1025.41,2039.32,1436.06,1651.93,1869.49,599.90,610.32,55.43,0000 0000 0000 0000 000000
2016-11-30 08:17:48,0.12,8.31,0.00,18.47,23.07,26.85,14.99,52.32,1025.41,2039.39,1435.59,1651.12,1869.00,599.91,610.49,55.48,0000 0000 0000 0000 000000
2016-11-30 08:22:50,0.13,8.32,0.00,18.47,23.07,26.84,14.98,52.49,1025.41,2039.39,1434.61,1650.68,1868.36,599.62,610.07,55.54,0000 0000 0000 0000 000000
2016-11-30 08:27:51,0.08,8.33,0.00,18.46,23.07,26.83,14.95,52.42,1025.40,2039.52,1433.89,1650.02,1867.70,599.97,610.42,55.59,0000 0000 0000 0000 000000
2016-11-30 08:32:53,0.13,8.33,0.00,18.45,23.07,26.86,15.02,52.42,1025.40,2039.49,1433.05,1649.36,1867.01,599.97,610.46,55.64,0000 0000 0000 0000 000000
2016-11-30 08:37:54,0.12,8.34,0.00,18.46,23.07,26.85,15.01,52.41,1025.40,2039.54,1432.16,1648.93,1866.26,599.90,610.46,55.69,0000 0000 0000 0000 000000
2016-11-30 08:42:55,0.15,8.34,0.00,18.44,23.06,26.85,15.03,52.46,1025.35,2039.66,1431.31,1648.13,1865.73,599.88,610.49,55.74,0000 0000 0000 0000 000000
2016-11-30 08:47:57,0.09,8.35,0.00,18.45,23.06,26.86,15.02,52.44,1025.38,2039.57,1430.44,1647.68,1864.98,599.93,610.40,55.79,0000 0000 0000 0000 000000
2016-11-30 08:52:58,0.14,8.36,0.00,18.44,23.05,26.87,15.07,52.45,1025.37,2039.56,1429.39,1646.96,1864.17,600.25,610.82,55.84,0000 0000 0000 0000 000000
2016-11-30 08:58:00,0.17,8.37,0.00,18.44,23.05,26.87,15.02,52.41,1025.38,2039.52,1428.40,1646.10,1863.43,600.32,610.99,55.89,0000 0000 0000 0000 000000
2016-11-30 09:03:01,0.19,8.38,0.00,18.44,23.04,26.87,15.03,52.51,1025.31,2039.70,1427.30,1645.34,1862.61,600.34,610.95,55.94,0000 0000 0000 0000 000000
2016-11-30 09:08:02,0.13,8.38,0.00,18.45,23.04,26.85,15.05,52.49,1025.34,2039.71,1426.29,1644.67,1861.83,600.26,610.89,55.99,0000 0000 0000 0000 000000
2016-11-30 09:13:04,0.12,8.39,0.00,18.43,23.04,26.85,15.02,52.52,1025.31,2039.70,1425.23,1643.96,1860.99,600.12,610.54,56.04,0000 0000 0000 0000 000000
2016-11-30 09:18:05,0.19,8.40,0.00,18.42,23.04,26.85,14.95,52.48,1025.18,2039.83,1424.19,1643.13,1860.13,600.09,610.58,56.09,0000 0000 0000 0000 000000
2016-11-30 09:23:07,0.16,8.41,0.00,18.44,23.04,26.81,15.04,52.55,1025.02,2039.92,1423.18,1642.47,1859.37,599.80,610.20,56.14,0000 0000 0000 0000 000000
2016-11-30 09:28:08,0.13,8.41,0.00,18.44,23.04,26.81,15.09,52.49,1024.94,2039.94,1422.28,1641.82,1858.59,600.18,610.43,56.19,0000 0000 0000 0000 000000
2016-11-30 09:33:09,0.13,8.42,0.00,18.43,23.04,26.83,15.04,52.43,1024.93,2039.91,1421.27,1641.03,1857.76,600.24,610.66,56.24,0000 0000 0000 0000 000000
2016-11-30 09:38:11,0.15,8.43,0.00,18.45,23.04,26.83,14.98,52.48,1024.92,2039.91,1420.13,1640.21,1856.95,600.10,610.44,56.29,0000 0000 0000 0000 000000
2016-11-30 09:43:11,0.16,8.44,0.00,18.44,23.03,26.82,14.98,52.47,1024.92,2039.89,1419.07,1639.57,1856.09,600.02,610.36,56.35,0000 0000 0000 0000 000000
2016-11-30 09:48:13,0.12,8.44,0.00,18.43,23.02,26.82,14.94,52.40,1024.92,2039.92,1418.11,1638.94,1855.37,599.89,610.23,56.40,0000 0000 0000 0000 000000
2016-11-30 09:53:14,0.13,8.45,0.00,18.43,23.02,26.83,15.01,52.48,1024.92,2039.96,1417.22,1638.13,1854.93,599.87,610.25,56.45,0000 0000 0000 0000 000000
2016-11-30 09:58:15,0.13,8.46,0.00,18.44,23.02,26.78,15.04,52.50,1024.92,2039.94,1416.56,1637.67,1854.10,600.08,610.25,56.50,0000 0000 0000 0000 000000
2016-11-30 10:03:17,0.08,8.46,0.00,18.44,23.02,26.82,15.03,52.43,1024.92,2039.93,1415.96,1637.02,1853.52,600.14,610.37,56.55,0000 0000 0000 0000 000000
2016-11-30 10:08:18,0.12,8.47,0.00,18.45,23.02,26.82,15.01,52.48,1024.92,2039.93,1415.11,1636.57,1852.95,599.98,610.25,56.60,0000 0000 0000 0000 000000
2016-11-30 10:13:19,0.11,8.47,0.00,18.43,23.02,26.83,14.98,52.48,1024.92,2039.90,1414.22,1635.99,1852.19,599.90,610.22,56.65,0000 0000 0000 0000 000000
2016-11-30 10:18:20,0.14,8.48,0.00,18.43,23.02,26.81,15.05,52.50,1024.90,2039.92,1413.43,1635.33,1851.76,600.33,610.42,56.70,0000 0000 0000 0000 000000
2016-11-30 10:23:22,0.07,8.48,0.00,18.43,23.02,26.81,15.06,52.51,1024.90,2039.88,1412.69,1634.94,1851.03,600.08,610.42,56.75,0000 0000 0000 0000 000000
2016-11-30 10:28:23,0.13,8.49,0.00,18.45,23.02,26.81,14.99,52.48,1024.88,2039.95,1411.99,1634.16,1850.41,600.06,610.23,56.80,0000 0000 0000 0000 000000
2016-11-30 10:33:24,0.10,8.50,0.00,18.45,23.01,26.79,14.99,52.39,1024.87,2039.99,1411.15,1633.82,1849.95,600.04,610.37,56.85,0000 0000 0000 0000 000000
2016-11-30 10:38:26,0.15,8.50,0.00,18.45,23.01,26.82,14.97,52.42,1024.85,2039.96,1410.19,1633.06,1849.13,599.94,610.13,56.90,0000 0000 0000 0000 000000
2016-11-30 10:43:27,0.10,8.51,0.00,18.45,23.00,26.80,14.97,52.40,1024.86,2039.98,1409.51,1632.72,1848.70,599.86,610.03,56.95,0000 0000 0000 0000 000000
2016-11-30 10:48:29,0.07,8.52,0.00,18.45,23.00,26.80,15.03,52.44,1024.85,2039.97,1408.90,1632.03,1848.03,599.92,610.22,57.00,0000 0000 0000 0000 000000
2016-11-30 10:53:30,0.11,8.52,0.00,18.46,23.00,26.80,15.01,52.41,1024.79,2039.96,1408.09,1631.76,1847.61,599.88,610.05,57.05,0000 0000 0000 0000 000000
2016-11-30 10:58:31,0.09,8.52,0.00,18.44,22.99,26.76,15.08,52.41,1024.68,2039.96,1407.64,1631.05,1847.00,600.14,610.29,57.10,0000 0000 0000 0000 000000
2016-11-30 11:03:33,0.09,8.53,0.00,18.43,22.99,26.78,15.01,52.51,1024.53,2039.97,1406.99,1630.69,1846.39,599.93,609.98,57.15,0000 0000 0000 0000 000000
2016-11-30 11:08:34,0.10,8.54,0.00,18.44,23.00,26.79,14.97,52.42,1024.51,2039.97,1406.18,1630.03,1845.96,599.85,609.91,57.20,0000 0000 0000 0000 000000
2016-11-30 11:13:35,0.04,8.54,0.00,18.44,23.00,26.79,14.95,52.33,1024.48,2039.97,1405.98,1629.94,1845.20,600.01,610.03,57.25,0000 0000 0000 0000 000000
2016-11-30 11:18:37,0.12,8.54,0.00,18.44,23.00,26.81,14.99,52.44,1024.50,2039.96,1405.29,1629.18,1844.99,600.06,610.14,57.31,0000 0000 0000 0000 000000
2016-11-30 11:23:38,0.01,8.55,0.00,18.42,23.01,26.85,15.04,52.39,1024.45,2039.96,1404.99,1629.01,1844.89,600.18,610.23,57.36,0000 0000 0000 0000 000000
2016-11-30 11:28:39,0.08,8.55,0.00,18.43,23.01,26.80,15.02,52.52,1024.45,2039.95,1404.45,1628.97,1844.15,600.05,610.05,57.41,0000 0000 0000 0000 000000
2016-11-30 11:33:41,0.07,8.55,0.00,18.46,23.02,26.81,15.00,52.38,1024.43,2039.98,1404.01,1628.42,1844.00,599.86,609.82,57.46,0000 0000 0000 0000 000000
2016-11-30 11:38:42,0.08,8.56,0.00,18.46,23.02,26.83,14.99,52.43,1024.43,2039.98,1403.54,1628.01,1843.69,600.16,609.98,57.51,0000 0000 0000 0000 000000
2016-11-30 11:43:43,0.05,8.56,0.00,18.46,23.02,26.81,14.99,52.54,1024.43,2039.97,1403.00,1627.81,1843.03,599.74,609.78,57.56,0000 0000 0000 0000 000000
2016-11-30 11:48:45,0.12,8.56,0.00,18.45,23.03,26.85,15.09,52.54,1024.43,2039.96,1402.26,1627.08,1842.81,600.17,610.22,57.61,0000 0000 0000 0000 000000
2016-11-30 11:53:46,0.04,8.57,0.00,18.47,23.04,26.84,14.97,52.54,1024.43,2039.98,1401.98,1626.98,1842.05,600.24,610.03,57.66,0000 0000 0000 0000 000000
2016-11-30 11:58:47,0.11,8.57,0.00,18.46,23.04,26.85,15.03,52.57,1024.42,2039.92,1401.23,1626.38,1841.95,600.07,609.89,57.71,0000 0000 0000 0000 000000
2016-11-30 12:03:48,0.05,8.58,0.00,18.46,23.05,26.87,15.04,52.58,1024.42,2039.90,1400.90,1626.00,1841.22,599.88,609.84,57.76,0000 0000 0000 0000 000000
2016-11-30 12:08:50,0.09,8.58,0.00,18.47,23.06,26.87,15.02,52.43,1024.42,2039.91,1400.09,1625.75,1840.97,600.19,609.99,57.81,0000 0000 0000 0000 000000
2016-11-30 12:13:51,0.12,8.59,0.00,18.47,23.07,26.88,15.04,52.58,1024.42,2039.95,1399.68,1625.04,1840.26,599.83,609.92,57.86,0000 0000 0000 0000 000000
2016-11-30 12:18:52,0.05,8.59,0.00,18.46,23.07,26.91,15.01,52.56,1024.38,2039.91,1398.98,1624.79,1839.96,600.27,610.15,57.91,0000 0000 0000 0000 000000
2016-11-30 12:23:54,0.13,8.60,0.00,18.48,23.07,26.89,15.06,52.54,1024.42,2039.86,1398.15,1624.07,1839.18,600.54,610.56,57.96,0000 0000 0000 0000 000000
2016-11-30 12:28:55,0.07,8.60,0.00,18.48,23.07,26.87,14.95,52.55,1024.31,2039.75,1397.55,1623.83,1838.83,600.00,609.85,58.01,0000 0000 0000 0000 000000
2016-11-30 12:33:56,0.12,8.61,0.00,18.47,23.07,26.84,15.03,52.58,1024.13,2039.68,1396.89,1623.05,1838.05,600.16,609.90,58.06,0000 0000 0000 0000 000000
2016-11-30 12:38:57,0.09,8.61,0.00,18.48,23.07,26.91,14.93,52.55,1023.99,2039.68,1396.09,1622.82,1837.72,600.05,609.69,58.11,0000 0000 0000 0000 000000
2016-11-30 12:43:59,0.12,8.62,0.00,18.49,23.07,26.86,15.07,52.63,1023.96,2039.60,1395.38,1622.04,1837.02,600.56,610.19,58.16,0000 0000 0000 0000 000000
2016-11-30 12:49:00,0.10,8.62,0.00,18.49,23.07,26.86,14.99,52.65,1023.94,2039.73,1394.84,1621.81,1836.51,599.77,609.60,58.22,0000 0000 0000 0000 000000
2016-11-30 12:54:01,0.09,8.63,0.00,18.50,23.08,26.84,14.98,52.56,1023.94,2039.72,1394.04,1621.05,1835.98,600.05,609.67,58.27,0000 0000 0000 0000 000000